RH
55 53 52 49 41 39 38 38 38 38 36 35 34 32 33 38 39 38 38 40 42 46 50 49 49 60 70 67 66 55 42 35 35 34 36 42 51 66 72 74 70 76 75
54 54 47 39 39 40 40 40 39 39 37 35 31 28 27 27 28 31 32 34 39 44 47 46 46 48 51 57 64 71 59 41 38 36 29 30 34 44 64 76 77 73 78
56 44 39 42 42 41 41 41 40 38 37 35 30 28 28 28 36 40 40 41 40 43 49 50 50 50 51 52 49 53 75 73 42 38 38 35 32 36 44 65 79 77 74
43 42 42 41 42 41 40 38 38 36 34 31 29 28 32 37 43 51 58 60 61 59 58 56 55 55 56 59 59 55 59 74 78 63 48 42 37 29 32 40 63 80 78
42 42 43 42 40 38 38 37 35 35 37 43 44 45 37 34 55 58 55 54 55 54 52 50 48 46 46 49 57 69 83 81 82 78 76 66 55 40 33 30 35 62 77
45 44 42 42 41 40 41 43 43 44 55 69 59 62 46 51 56 59 56 59 58 55 53 50 45 40 35 35 36 46 91 98 94 84 76 77 78 60 48 40 38 39 66
45 43 43 44 42 40 36 40 44 52 56 62 70 61 49 61 41 59 51 58 56 56 56 53 44 42 37 33 32 33 72 96 99 99 94 79 75 79 68 57 50 44 50
45 46 47 48 49 44 32 35 46 64 67 71 76 84 87 67 72 53 51 58 50 61 53 47 51 53 50 44 40 39 89 52 65 91 95 88 85 81 80 70 59 52 55
49 51 57 55 45 40 42 47 62 74 80 76 79 82 90 93 82 64 61 61 66 62 68 66 69 70 58 56 65 68 99 98 81 71 87 88 79 88 85 82 68 59 68
52 60 56 46 41 46 45 58 68 72 78 87 81 85 79 85 84 74 66 68 68 71 71 72 80 77 67 76 69 64 66 72 72 86 90 93 99 89 84 87 86 64 61
56 48 49 48 54 52 59 59 66 74 77 82 83 82 84 92 85 88 84 74 72 70 69 64 77 73 67 64 59 58 60 66 67 82 97 88 92 91 85 82 88 79 64
52 54 52 54 52 47 52 52 54 56 56 62 62 65 78 97 96 98 91 81 89 97 77 74 77 76 72 61 50 56 63 66 63 66 81 85 92 90 98 94 90 83 76
46 50 56 55 48 53 59 59 64 69 57 56 57 61 68 73 80 92 87 84 88 74 79 67 71 74 72 53 50 64 66 64 68 67 62 60 83 89 91 91 98 96 93
55 60 58 47 53 53 66 59 49 52 40 41 43 48 56 58 52 52 85 92 88 83 73 73 62 65 59 62 60 48 45 62 72 77 72 68 77 98 85 97 90 80 67
63 63 56 50 52 63 60 54 47 40 40 40 43 48 52 52 51 55 59 63 80 87 70 59 66 62 53 48 46 47 42 44 49 72 85 77 73 93 87 81 86 92 81
64 63 58 57 69 65 59 46 41 40 41 44 52 56 54 56 59 57 57 56 58 80 87 66 67 71 72 67 57 47 43 43 45 42 48 84 80 70 83 91 88 80 93
56 56 64 72 65 65 70 49 43 43 47 54 56 56 60 61 60 60 58 53 54 69 84 76 76 74 62 65 64 52 51 50 45 38 44 47 61 72 69 94 98 95 83
48 69 74 69 73 78 62 59 51 50 56 59 60 65 64 65 70 68 67 64 72 75 88 88 86 86 82 69 63 61 58 56 47 43 43 55 56 74 70 75 99 98 98
62 71 77 80 74 58 53 50 53 56 58 65 68 69 75 85 86 80 79 80 83 82 87 98 91 92 92 81 74 63 61 53 48 48 44 50 61 58 71 64 94 100 98
84 89 92 89 71 54 56 56 58 62 69 73 79 88 92 94 91 89 94 95 84 82 88 87 86 86 98 81 82 79 65 55 52 51 45 41 64 71 65 74 60 90 98
93 95 65 65 54 56 57 61 68 72 79 86 86 88 95 95 87 84 81 86 88 93 95 93 89 83 84 92 91 90 92 64 62 59 48 41 50 64 76 83 64 69 75
96 92 97 58 59 62 67 68 71 80 80 78 80 79 81 85 84 85 87 86 90 97 98 97 90 88 84 80 98 97 97 88 78 62 66 71 69 61 57 64 78 86 76
93 74 71 66 66 65 63 66 76 76 79 82 82 82 91 85 90 96 96 94 92 94 95 95 97 93 97 92 89 90 94 92 87 73 76 80 73 66 62 57 58 68 74
77 90 71 71 66 62 63 68 79 80 81 78 80 88 97 98 94 94 98 94 92 88 91 95 91 94 94 95 97 98 95 96 94 97 94 94 84 77 64 56 53 54 49
73 74 75 66 63 62 63 67 85 84 81 81 86 86 95 91 94 95 95 99 94 95 94 97 96 94 92 94 95 97 98 96 90 84 78 97 88 85 73 58 47 48 59
66 76 66 66 65 66 66 78 88 89 85 95 93 93 92 92 93 95 96 96 98 94 99 97 98 93 90 86 84 87 85 98 98 96 79 94 88 87 80 54 50 43 45
Wind_Speed
6 6 7 7 7 8 10 11 12 14 16 17 17 17 16 15 15 15 16 16 16 16 17 18 19 20 20 22 25 25 22 20 19 17 16 16 17 17 18 19 22 22 24
5 6 7 6 7 10 11 13 15 16 17 16 17 18 18 17 17 16 15 16 16 16 17 20 21 21 21 22 22 24 28 25 22 20 17 17 16 18 17 18 20 23 24
7 7 5 6 9 10 11 12 13 13 16 18 19 20 20 20 18 16 17 16 16 16 15 15 17 19 22 24 25 25 22 28 28 25 21 19 18 17 18 17 18 21 24
6 5 7 9 9 11 12 12 14 17 19 21 22 21 20 19 17 15 10 10 9 10 11 14 16 17 18 20 24 26 26 22 26 29 26 22 19 18 16 17 18 19 20
6 8 10 8 8 10 11 14 16 17 17 15 16 14 17 18 13 8 12 14 13 14 15 18 20 22 24 23 22 23 23 24 24 24 26 26 23 19 17 17 17 19 18
5 6 6 8 12 13 16 18 18 16 14 14 12 13 15 9 8 9 17 13 14 16 18 22 28 31 31 31 28 25 23 22 22 24 26 25 25 23 19 18 19 18 18
3 7 8 11 14 18 18 18 19 18 16 19 9 20 11 3 17 7 22 14 19 21 21 26 29 28 30 30 30 27 24 22 21 20 20 26 26 26 24 21 19 18 17
4 7 11 16 19 18 16 18 18 13 10 13 9 6 3 7 3 19 19 20 26 20 28 26 27 24 23 24 24 25 19 23 22 21 21 23 20 23 25 24 20 18 17
6 12 18 17 13 14 17 18 13 12 11 11 11 5 3 2 14 9 25 22 23 29 18 30 27 23 19 19 19 17 16 20 18 20 20 21 23 20 18 24 23 20 17
9 17 18 12 13 15 15 12 11 11 10 8 7 6 10 12 4 8 4 20 19 23 29 29 26 23 17 14 14 13 14 16 18 15 17 17 16 19 22 20 21 21 18
14 16 12 10 9 10 7 8 7 7 8 8 10 13 14 11 9 6 10 15 21 20 24 27 21 21 17 17 16 15 15 15 16 15 14 14 13 11 16 21 19 17 18
16 12 10 8 7 9 11 11 10 9 9 9 10 11 11 7 8 8 5 13 15 16 26 17 19 18 17 16 15 14 11 13 15 16 14 13 12 11 4 5 9 13 16
19 17 11 7 8 8 9 10 9 10 10 11 12 14 14 13 11 11 9 9 5 17 10 20 12 14 13 18 16 13 11 12 14 14 18 15 15 12 12 8 6 10 13
18 12 8 8 7 10 24 13 13 12 12 13 14 14 14 10 10 11 7 8 7 6 18 17 23 10 14 17 22 20 19 15 14 14 15 19 13 12 10 6 9 9 11
15 11 12 12 14 21 13 16 14 12 13 13 14 11 12 13 14 16 15 14 9 6 10 18 19 19 23 22 18 21 22 18 15 15 14 12 18 15 13 7 4 5 17
15 16 19 17 18 19 15 12 14 13 13 13 11 13 14 16 18 21 21 22 19 16 9 19 24 24 25 26 23 21 21 20 19 16 15 15 16 17 16 16 14 8 4
18 24 21 16 14 8 14 15 13 17 15 13 13 13 17 20 24 23 21 21 21 18 15 25 25 28 29 26 25 19 18 21 19 18 16 15 16 16 15 13 20 18 8
23 22 17 12 15 19 14 15 18 16 14 14 14 17 23 24 23 22 22 23 22 22 21 21 25 26 25 24 19 21 22 20 19 17 15 13 13 15 14 11 10 9 12
20 14 13 18 15 9 10 11 14 11 11 14 19 23 23 24 25 25 26 24 23 21 21 19 24 23 24 25 25 23 22 20 17 17 17 15 12 13 15 12 11 10 10
19 17 17 16 9 3 9 11 7 11 16 20 22 22 25 25 24 26 24 21 19 21 20 21 23 25 19 22 19 19 21 19 17 16 17 17 12 9 16 17 12 8 8
17 15 7 3 5 10 7 6 10 16 19 21 23 25 23 22 24 24 24 21 23 22 19 18 18 18 17 14 13 14 13 18 16 15 15 12 12 8 1 11 18 16 13
14 14 8 7 5 2 4 8 13 16 18 22 24 25 24 22 20 21 23 23 24 24 20 19 20 18 19 18 14 14 11 7 3 8 10 8 9 12 9 3 4 14 19
7 5 8 3 1 4 8 11 14 16 19 22 22 21 19 18 21 22 22 23 25 23 22 24 18 15 18 20 21 16 14 14 11 15 13 17 14 16 12 12 8 7 10
8 11 3 2 2 6 9 11 12 16 20 21 20 18 20 20 21 21 26 21 21 23 22 20 20 22 22 22 23 23 20 15 16 16 14 10 11 16 11 11 12 12 12
10 5 4 2 5 7 10 12 13 16 18 20 18 19 18 18 20 23 24 18 21 19 19 16 18 19 20 20 19 17 15 16 13 13 14 14 12 15 15 14 12 15 18
8 6 2 4 6 8 10 10 11 16 18 19 20 18 18 17 21 22 21 20 20 17 19 18 18 18 17 18 19 19 21 15 5 2 11 13 13 10 5 10 11 16 19
Wind_Direction
143 126 98 72 53 40 32 24 11 6 1 355 353 351 349 344 336 332 325 319 314 309 307 306 305 302 299 296 298 302 308 310 310 302 291 287 285 281 275 270 256 251 244
146 120 98 74 33 19 18 10 7 0 355 356 354 353 348 342 338 335 324 317 316 308 301 296 296 296 296 291 285 294 295 300 304 304 298 293 288 282 278 273 265 254 247
135 119 96 52 26 12 3 358 351 347 344 347 345 343 340 336 337 333 330 327 317 313 316 313 306 306 299 292 284 281 290 295 295 299 296 302 294 285 280 276 271 263 252
111 80 41 21 4 349 343 347 347 343 341 341 338 337 335 334 337 340 360 10 10 359 348 351 344 336 324 315 299 287 283 279 287 290 291 292 293 287 288 284 277 269 260
33 5 4 356 11 353 345 347 345 344 346 345 340 338 328 333 341 11 2 1 357 356 350 341 336 333 331 327 319 312 306 293 283 283 282 286 287 287 288 290 286 276 271
344 13 14 5 3 360 358 356 354 352 359 354 345 334 337 320 355 10 1 357 352 349 341 335 331 326 322 319 316 313 321 316 303 284 276 272 274 279 282 285 287 283 274
341 2 3 0 1 358 354 349 350 352 351 353 346 342 333 193 317 303 344 329 333 330 330 328 326 322 317 312 308 306 307 315 316 301 279 272 270 267 270 273 281 283 279
341 353 0 352 342 338 343 348 345 348 341 357 348 325 339 301 280 317 322 323 320 319 323 320 321 318 316 310 305 301 308 295 301 303 291 266 266 267 265 269 276 282 280
349 354 340 338 348 353 350 347 352 358 353 353 7 13 344 310 337 310 317 316 324 322 318 317 318 313 310 306 310 318 313 316 307 296 301 288 270 260 263 255 264 272 274
335 341 340 344 342 339 341 352 350 348 349 350 346 323 315 304 304 307 318 308 310 312 315 315 317 312 307 313 310 318 321 319 316 315 307 306 300 279 261 253 244 256 262
317 330 325 318 330 345 355 353 354 350 341 327 327 325 323 315 290 297 308 325 313 304 300 303 302 309 310 321 315 308 319 327 330 324 320 313 304 307 266 252 242 241 251
308 298 283 289 324 346 348 345 337 330 328 323 324 321 318 307 301 303 301 315 320 318 325 323 308 306 323 328 328 314 314 327 336 344 331 305 305 285 333 264 246 246 243
310 288 278 301 322 332 323 306 302 307 316 315 315 311 310 308 316 314 319 320 320 318 307 326 325 315 329 342 343 333 318 322 333 338 349 329 291 297 277 298 296 244 244
293 279 275 289 287 297 312 295 297 297 302 304 304 302 304 306 315 324 312 315 305 265 295 295 308 297 309 304 309 322 335 314 314 325 339 349 318 289 296 300 273 275 259
293 277 273 280 281 308 276 282 276 279 285 295 291 286 282 292 303 314 311 312 292 300 292 292 277 278 285 296 289 292 303 313 321 312 316 341 343 299 271 276 306 258 247
296 282 278 270 296 297 265 271 275 278 280 291 277 279 286 299 309 311 307 308 305 281 283 289 287 284 284 283 272 277 288 297 297 306 316 305 321 329 287 264 274 295 269
302 291 271 273 294 290 291 275 289 279 279 276 281 289 297 310 311 308 305 304 302 295 280 289 284 285 288 281 269 261 279 288 294 298 298 297 299 308 316 270 260 262 290
306 290 272 277 295 299 276 289 278 282 279 286 298 306 309 313 306 302 303 303 303 298 280 284 287 287 284 287 262 275 277 281 286 286 288 295 291 276 298 309 262 278 255
307 290 282 304 301 294 285 296 290 287 294 303 310 311 310 312 307 304 306 301 299 293 284 282 295 290 284 284 278 264 269 274 275 279 283 286 293 275 255 279 296 268 252
307 296 302 300 301 333 326 316 306 310 309 311 310 310 310 311 308 305 300 291 295 294 290 285 283 284 272 288 282 263 260 266 275 282 284 278 276 292 249 239 262 266 249
311 305 315 316 310 322 319 322 311 313 317 316 315 315 313 309 301 300 301 299 301 289 281 281 284 289 294 292 280 272 254 266 274 284 291 291 255 271 340 231 223 231 242
316 303 293 304 297 335 334 317 319 318 320 321 322 319 316 311 310 306 302 298 295 293 286 277 276 267 275 276 278 287 266 265 280 255 277 272 288 265 268 255 162 206 225
309 301 306 274 311 352 338 332 325 326 324 323 323 324 322 315 316 314 310 302 301 296 290 291 286 291 281 268 270 274 269 268 253 265 279 284 281 278 254 265 249 217 201
292 310 242 212 342 344 339 338 336 327 325 330 330 328 319 320 321 317 312 320 311 307 300 279 278 282 286 290 289 264 267 269 275 271 264 265 274 271 274 256 249 239 234
303 250 206 290 332 338 339 341 341 334 333 333 334 331 327 324 325 325 327 329 329 315 329 289 282 280 282 281 277 285 252 243 247 248 249 243 250 262 279 276 263 238 237
275 195 222 307 324 330 339 345 343 335 333 332 331 329 330 330 329 332 333 338 321 328 329 322 306 304 294 285 278 261 260 261 244 218 250 232 255 243 276 257 249 233 226